This is the latest recevied weather packets stored in our database for station/object JE6MIQ-13. If no packets are shown the sender has not sent any weather packets the latest 10 day(s).
| Time | Temp. | Humidity | Pressure | Rain* | Wind** | Luminosity | Snow |
|---|---|---|---|---|---|---|---|
| 1777729352 | 19.44° C | 25% | 1010.9 hPa | 0 mm | - | - | - |
| 1777728753 | 18.89° C | 25% | 1010.9 hPa | 0 mm | - | - | - |
| 1777728152 | 18.89° C | 25% | 1011 hPa | 0 mm | - | - | - |
| 1777727552 | 18.89° C | 25% | 1011 hPa | 0 mm | - | - | - |
| 1777726953 | 18.89° C | 25% | 1010.9 hPa | 0 mm | - | - | - |
| 1777726353 | 18.89° C | 25% | 1010.9 hPa | 0 mm | - | - | - |
| 1777725753 | 19.44° C | 25% | 1010.9 hPa | 0 mm | - | - | - |
| 1777725153 | 19.44° C | 25% | 1010.7 hPa | 0 mm | - | - | - |
| 1777724553 | 19.44° C | 25% | 1010.6 hPa | 0 mm | - | - | - |
| 1777723953 | 19.44° C | 25% | 1010.7 hPa | 0 mm | - | - | - |
| 1777723353 | 19.44° C | 25% | 1010.7 hPa | 0 mm | - | - | - |
| 1777722752 | 20° C | 25% | 1010.4 hPa | 0 mm | - | - | - |
| 1777722152 | 20° C | 25% | 1010.4 hPa | 0 mm | - | - | - |
| 1777721552 | 20° C | 25% | 1010.2 hPa | 0 mm | - | - | - |
| 1777720953 | 20° C | 25% | 1009.9 hPa | 0 mm | - | - | - |
| 1777720352 | 20° C | 25% | 1009.9 hPa | 0 mm | - | - | - |
| 1777719752 | 20° C | 25% | 1009.8 hPa | 0 mm | - | - | - |
| 1777719153 | 20.56° C | 25% | 1010.1 hPa | 0 mm | - | - | - |
| 1777718553 | 20.56° C | 25% | 1010.1 hPa | 0 mm | - | - | - |
| 1777717953 | 20.56° C | 25% | 1009.8 hPa | 0 mm | - | - | - |
| 1777717353 | 21.11° C | 25% | 1009.9 hPa | 0 mm | - | - | - |
| 1777716752 | 21.67° C | 25% | 1009.9 hPa | 0 mm | - | - | - |
| 1777716153 | 22.22° C | 25% | 1009.4 hPa | 0 mm | - | - | - |
| 1777715552 | 22.22° C | 25% | 1009.3 hPa | 0 mm | - | - | - |
| 1777714953 | 22.22° C | 25% | 1009.3 hPa | 0 mm | - | - | - |
* Rain latest hour (hover to see other rain measurements)
** Current wind speed in m/s (hover to see current wind gust speed)